彩虹 23星 (RADUGA 23)

导读

RADUGA 23(中文译名“虹23号”)是独联体(CIS)“虹”系列第一代地球同步轨道通信卫星,于1989年4月14日发射升空。卫星由苏联应用力学科研生产联合体采用KAUR-3平台研制,发射质量约2000千克,携带C频段转发器,主要为东半球提供军事通信、电视转播及电报电话服务,设计寿命3年,是苏联/俄罗斯早期固定通信卫星组网的重要组成部分。

Basic Information
目录编号:
19928
目录名称:
RADUGA 23
国际标识:
1989-030A
轨道中心:
EARTH
卫星名称:
彩虹 23星
卫星全名:
彩虹 23星 (RADUGA 23)
卫星状态:
在轨 (已飞行13577 天)
发射日期:
1989-04-14 UTC
国别 :
俄罗斯(独联体) (CIS)
星等 :
--
Orbit Information
数据来源 国际轨道数据 AOE轨道数据
星历时间 2026-06-16T06:06:51+0800
14小时前
查看轨道信息
2026-06-12T01:00:00+0800
4天前
查看轨道信息
半长轴 42182.651km 42182.062km
偏心率 0.0019395 0.0019366
轨道倾角 11.805° 11.810°
近地点辐角 206.984° 207.362°
升交点赤经 331.996° 332.026°
平近点角 161.840° 81.529°
近地点 35722.7km 35722.235km
远地点 35886.328km 35885.615km
周期 1437.012分钟 1436.982分钟
每日圈数 1.002079 1.0021
Detailed Information
平衡模式:
三轴稳定
覆盖范围:
全球
运营商:
俄罗斯国家航天集团
运营商所在国:
俄罗斯
制造商(研发单位):
普里克拉德诺伊·梅哈尼基设计局
制造商所在国:
俄罗斯联邦
使用方式:
暂无
Satellite Introduction
彩虹卫星(Raduga, Gran)是苏联用于军事和通信目的的一系列地球静止通信卫星。彩虹卫星旨在支持军事通信、Orbita地面电视网络,并在整个东半球(极地地区除外)提供电话和电报通信。该卫星已退役。
2D Orbit Map
3D Orbit Map
Orbit Altitude Analysis Chart
Orbit Inclination Analysis Chart
Orbit Comprehensive Analysis Chart
View Comprehensive Chart